This is the latest recevied weather packets stored in our database for station/object N1JOV-7. If no packets are shown the sender has not sent any weather packets the latest 10 day(s).
| Time | Temp. | Humidity | Pressure | Rain* | Wind** | Luminosity | Snow |
|---|---|---|---|---|---|---|---|
| 1788459062 | 18.33° C | 99% | 1014.5 hPa | 0 mm | - | - | - |
| 1788458462 | 18.33° C | 99% | 1014.5 hPa | 0 mm | - | - | - |
| 1788457862 | 17.78° C | 99% | 1014.4 hPa | 0 mm | - | - | - |
| 1788457262 | 17.78° C | 99% | 1014.4 hPa | 0 mm | - | - | - |
| 1788456661 | 17.78° C | 99% | 1014.7 hPa | 0 mm | - | - | - |
| 1788456061 | 17.78° C | 99% | 1014.3 hPa | 0 mm | - | - | - |
| 1788455461 | 17.78° C | 99% | 1014.7 hPa | 0 mm | - | - | - |
| 1788454861 | 17.78° C | 99% | 1014.6 hPa | 0 mm | - | - | - |
| 1788454261 | 17.78° C | 99% | 1014.7 hPa | 0 mm | - | - | - |
| 1788453661 | 17.78° C | 99% | 1014.7 hPa | 0 mm | - | - | - |
| 1788453061 | 18.33° C | 99% | 1015 hPa | 0 mm | - | - | - |
| 1788452461 | 17.22° C | 99% | 1014.9 hPa | 0 mm | - | - | - |
| 1788451862 | 17.78° C | 99% | 1015.3 hPa | 0 mm | - | - | - |
| 1788451262 | 17.22° C | 99% | 1015.4 hPa | 0 mm | - | - | - |
| 1788450661 | 17.22° C | 99% | 1015.6 hPa | 0 mm | - | - | - |
| 1788450061 | 16.67° C | 99% | 1015.9 hPa | 0 mm | - | - | - |
| 1788449461 | 16.67° C | 99% | 1016.1 hPa | 0 mm | - | - | - |
| 1788448861 | 16.67° C | 99% | 1016.1 hPa | 0 mm | - | - | - |
| 1788448261 | 16.67° C | 99% | 1016.4 hPa | 0 mm | - | - | - |
| 1788447661 | 16.67° C | 99% | 1016.3 hPa | 0.76 mm | - | - | - |
| 1788447061 | 16.67° C | 99% | 1016.4 hPa | 0 mm | - | - | - |
| 1788446461 | 16.11° C | 99% | 1016.4 hPa | 0 mm | - | - | - |
| 1788445862 | 16.11° C | 99% | 1016.6 hPa | 0 mm | - | - | - |
| 1788445262 | 16.11° C | 99% | 1016.5 hPa | 0 mm | - | - | - |
| 1788444662 | 16.11° C | 99% | 1016.6 hPa | 0 mm | - | - | - |
* Rain latest hour (hover to see other rain measurements)
** Current wind speed in m/s (hover to see current wind gust speed)